Location: Baix
(44.7118°N, 4.7648°E)
Time: 21:04:51
(UTC+00:00)

Tiros 1 despin weight - Visible Passes

Search period start: 28 November 2021 00:00
Search period end: 08 December 2021 00:00
Orbit: 593 x 641 km, 48.2° (Epoch: 28 November)

Date Brightness Start Highest point End Pass type
(mag) Time Alt. Az. Time Alt. Az. Time Alt. Az.
28 Nov ? 17:10:41 10° W 17:15:01 55° N 17:17:55 20° ENE visible
28 Nov ? 18:52:28 10° WNW 18:54:57 32° WNW 18:54:57 32° WNW visible
29 Nov ? 17:27:00 10° WNW 17:31:20 53° N 17:33:24 28° ENE visible
29 Nov ? 19:08:40 10° WNW 19:10:26 24° WNW 19:10:26 24° WNW visible
30 Nov ? 17:43:16 10° WNW 17:47:39 59° N 17:48:56 41° ENE visible
30 Nov ? 19:24:52 10° WNW 19:25:59 17° WNW 19:25:59 17° WNW visible
01 Dec ? 17:59:29 10° WNW 18:03:54 75° NNE 18:04:32 62° ENE visible
01 Dec ? 19:41:11 10° W 19:41:35 12° W 19:41:35 12° W visible
02 Dec ? 16:34:02 10° WNW 16:38:22 55° N 16:42:43 10° E visible
02 Dec ? 18:15:39 10° WNW 18:20:04 77° SSW 18:20:13 76° S visible
03 Dec ? 16:50:16 10° WNW 16:54:40 64° NNE 16:58:58 10° E visible
03 Dec ? 18:31:53 10° WNW 18:36:02 48° SW 18:36:02 48° SW visible
04 Dec ? 17:06:27 10° WNW 17:10:53 85° NNE 17:14:56 12° ESE visible
04 Dec ? 18:48:18 10° W 18:52:00 28° SW 18:52:00 28° SW visible
05 Dec ? 17:22:38 10° WNW 17:27:01 65° SSW 17:31:06 12° SE visible
05 Dec ? 19:05:15 10° W 19:07:56 16° SW 19:08:11 16° SW visible
06 Dec ? 17:38:56 10° WNW 17:43:02 39° SW 17:47:09 10° SE visible
07 Dec ? 17:55:29 10° W 17:58:56 23° SW 18:02:23 10° S visible
